Tracking 35331 objects as of 14-Sep-2026
HD Live streaming from Space Station
objects crossing your sky now

STARLINK-38393

Track STARLINK-38393 now!
10-day predictions
STARLINK-38393 is classified as:


NORAD ID: 100513
Int'l Code: 2026-197M
Launch date: August 26, 2026
Source: United States (US)
Launch site: AIR FORCE WESTERN TEST RANGE (AFWTR)
Your satellite tracking list
Your tracking list is empty




NASA's NSSDC Master Catalog

Two Line Element Set (TLE):
1 A0513U 26197M   26257.18700749  .00128056  00000-0  75622-3 0  9999
2 A0513  69.9986 139.6046 0004212 264.4939  95.5780 15.77605917  2995
Source of the keplerian elements: AFSPC